Flag for France Weather past 2 weeks in Limoges, France

Now
43 °F

Passing clouds.


Feels Like: 40 °F
Forecast: 39 / 51 °F
Wind: 5 mph from Northwest

Location: Limoges Airport

Current Time: Apr 1, 2015 at 11:41:00 PM

Latest Report: Apr 1, 2015 at 10:30 PM


Visibility: N/A

Pressure: 30.42 "Hg

Humidity: 81%

Dew point: 37 °F

Location of LimogesLocation

Historic Weather in Limoges — Graph

°F

Limoges temperature yesterday

Maximum temperature yesterday: 55 °F (at 4:00 PM)
Minimum temperature yesterday: 45 °F (at 10:30 PM)
Average temperature yesterday: 49 °F

Past Weeks' High & Low Weather Summary

 TemperatureHumidityPressure
High61 °F (Mar 18, 2:00 PM)100% (Mar 20, 6:00 AM)30.45 "Hg (Mar 20, 6:00 AM)
Low30 °F (Mar 26, 7:00 AM)48% (Mar 18, 1:00 PM)29.71 "Hg (Mar 24, 1:30 PM)
Average46 °F84%30.07 "Hg
* Reported Mar 17 9:00 PM — Apr 1 10:30 PM, Limoges, Weather by CustomWeather, © 2015

Note: Actual official high and low records may vary slightly from our data, if they occured in-between our weather recording intervals... More about our weather records

Advertising

Limoges weather history for previous 24 hours

 ConditionsComfort  
Time TempWeatherWind HumidityBarometerVisibility
10:30 PM
Wed, Apr 1
43 °FPassing clouds.5 mph81%30.42 "HgN/A
10:00 PM43 °FClear.7 mph76%30.42 "HgN/A
9:30 PM45 °FClear.5 mph71%30.42 "HgN/A
9:00 PM45 °FClear.6 mph66%30.42 "HgN/A
8:30 PM46 °FPartly sunny.6 mph66%30.39 "HgN/A
8:00 PM48 °FOvercast.8 mph58%30.39 "HgN/A
7:30 PM48 °FMostly cloudy.10 mph58%30.39 "HgN/A
7:00 PM50 °FBroken clouds.12 mph58%30.39 "HgN/A
6:30 PM50 °FMostly cloudy.14 mph58%30.39 "HgN/A
6:00 PM50 °FMore clouds than sun.9 mph58%30.39 "HgN/A
5:30 PM50 °FPartly sunny.10 mph58%30.39 "HgN/A
5:00 PM50 °FPartly sunny.13 mph54%30.39 "HgN/A
4:30 PM50 °FPartly sunny.10 mph54%30.42 "HgN/A
4:00 PM50 °FBroken clouds.9 mph54%30.42 "HgN/A
3:30 PM50 °FPartly sunny.12 mph54%30.42 "HgN/A
3:00 PM50 °FMostly cloudy.12 mph54%30.42 "HgN/A
2:30 PM48 °FPartly sunny.10 mph58%30.42 "HgN/A
2:00 PM48 °FBroken clouds.10 mph54%30.45 "HgN/A
1:30 PM48 °FPartly sunny.12 mph54%30.45 "HgN/A
1:00 PM46 °FPartly sunny.14 mph62%30.45 "HgN/A
12:30 PM46 °FBroken clouds.8 mph66%30.45 "HgN/A
12:00 PM46 °FBroken clouds.10 mph66%30.45 "HgN/A
11:30 AM45 °FMostly cloudy.10 mph71%30.45 "HgN/A
11:00 AM43 °FMostly cloudy.7 mph81%30.45 "HgN/A
10:30 AM43 °FMostly cloudy.8 mph87%30.45 "HgN/A
10:00 AM41 °FMostly cloudy.7 mph93%30.45 "HgN/A
9:30 AM39 °FLow clouds.6 mph100%30.45 "HgN/A
9:00 AM39 °FLow clouds.6 mph100%30.42 "HgN/A
8:30 AM39 °FLow clouds.8 mph100%30.42 "Hg4 mi
8:00 AM39 °FFog.7 mph100%30.39 "Hg3 mi
7:30 AM39 °FFog.6 mph100%30.39 "Hg1 mi
7:00 AM39 °FPassing clouds.5 mph93%30.39 "HgN/A
6:30 AM39 °FPassing clouds.6 mph100%30.36 "HgN/A
6:00 AM41 °FLow clouds.7 mph93%30.36 "HgN/A
5:30 AM41 °FLow clouds.7 mph100%30.36 "HgN/A
4:30 AM41 °FLow clouds.6 mph100%30.36 "HgN/A
4:00 AM43 °FLow clouds.8 mph93%30.36 "HgN/A
3:30 AM43 °FLow clouds.9 mph93%30.36 "HgN/A
3:00 AM43 °FLow clouds.9 mph93%30.36 "HgN/A
2:30 AM43 °FLow clouds.12 mph93%30.36 "HgN/A
2:00 AM43 °FLow clouds.9 mph93%30.36 "HgN/A
1:30 AM43 °FLow clouds.12 mph93%30.33 "HgN/A
1:00 AM43 °FLow clouds.10 mph93%30.33 "HgN/A
12:30 AM43 °FLow clouds.12 mph93%30.33 "HgN/A
12:00 AM45 °FLow clouds.10 mph87%30.33 "HgN/A
11:30 PM
Tue, Mar 31
45 °FLow clouds.10 mph87%30.30 "HgN/A
11:00 PM45 °FOvercast.10 mph87%30.30 "HgN/A
Weather by CustomWeather, © 2015

See weather overviewHow to use our weather pages